Simultaneous Nadir Overpasses (SNOs) Predictions

Prediction of SNOs between NPP and TERRA Satellite Orbit:

Table of predicted SNOs for the next 14.0 days since TLE Epoch: 9/28/2012
Index Date (NPP) Time (NPP) Lat,Lon (NPP) SZA (NPP ) Date (TERRA) Time (TERRA) Lat,Lon (TERRA) SZA (TERRA ) Distance(km) Time Diff (sec)
1 10/01/2012 03:44:39 -68.31, -57.97 108.49 10/01/2012 03:45:51 -68.30, -57.97 108.50 1.52 72
2 10/01/2012 04:35:23 68.19, 109.50 71.41 10/01/2012 04:35:18 68.18, 109.54 71.40 1.98 5
3 10/01/2012 05:26:02 -67.95, -82.88 108.82 10/01/2012 05:24:50 -67.96, -83.08 108.81 8.86 72
4 10/03/2012 20:01:31 -68.27, 57.86 107.49 10/03/2012 20:02:17 -68.29, 57.91 107.47 2.71 46
5 10/03/2012 20:52:14 68.10,-134.61 72.36 10/03/2012 20:51:45 68.11,-134.65 72.37 2.22 29
6 10/03/2012 21:42:38 -67.04, 33.98 108.68 10/03/2012 21:41:31 -67.11, 31.85 108.63 92.59 67
7 10/06/2012 11:27:54 69.04, 5.31 74.30 10/06/2012 11:29:02 68.97, 7.02 74.25 68.54 68
8 10/06/2012 12:18:22 -68.20, 173.74 106.53 10/06/2012 12:18:44 -68.20, 173.70 106.53 1.82 22
9 10/06/2012 13:09:06 68.08, -18.81 73.37 10/06/2012 13:08:11 68.08, -18.80 73.36 0.46 55
10 10/09/2012 03:44:32 68.29, 122.09 74.57 10/09/2012 03:45:39 68.30, 122.08 74.59 2.05 67
11 10/09/2012 04:35:14 -68.19, -70.47 105.52 10/09/2012 04:35:09 -68.20, -70.41 105.51 3.00 5
12 10/09/2012 05:25:51 67.76, 97.38 74.07 10/09/2012 05:24:39 67.86, 96.83 74.16 25.41 72
13 10/11/2012 20:01:22 68.25,-122.08
